Flag for Rwanda Weather past 2 weeks in Butare, Rwanda

Now
64 °F

Passing clouds.


Feels Like: 64 °F
Forecast: 54 / 75 °F
Wind: No wind

Location: Kigali Airport

Current Time: Oct 20, 2014 at 8:46:32 PM

Latest Report: Oct 20, 2014 at 8:00 PM


Visibility: N/A

Pressure: 30.12 "Hg

Humidity: 100%

Dew point: 64 °F

Location of ButareLocation

Historic Weather in Butare — Graph

°F

Butare temperature yesterday

Maximum temperature yesterday: 79 °F (at 3:30 PM)
Minimum temperature yesterday: 63 °F (at 6:00 AM)
Average temperature yesterday: 69 °F

Past Weeks' High & Low Weather Summary

 TemperatureHumidityPressure
High86 °F (Oct 10, 2:30 PM)100% (Oct 6, 12:30 AM)30.24 "Hg (Oct 6, 12:30 AM)
Low34 °F (Oct 20, 10:00 AM)37% (Oct 11, 4:30 PM)29.98 "Hg (Oct 17, 3:00 PM)
Average71 °F76%30.10 "Hg
* Reported Oct 5 8:00 PM — Oct 20 8:00 PM, Butare, Weather by CustomWeather, © 2014

Note: Actual official high and low records may vary slightly from our data, if they occured in-between our weather recording intervals... More about our weather records

Advertising

Butare weather history for previous 24 hours

 ConditionsComfort  
Time TempWeatherWind HumidityBarometerVisibility
8:00 PM
Oct 20
64 °FPassing clouds.No wind100%30.12 "HgN/A
7:30 PM66 °FPassing clouds.No wind88%30.12 "HgN/A
7:00 PM66 °FPassing clouds.No wind88%30.12 "HgN/A
6:30 PM66 °FPassing clouds.No wind88%30.09 "HgN/A
6:00 PM68 °FPassing clouds.No wind83%30.09 "HgN/A
5:00 PM72 °FScattered clouds.5 mph73%30.09 "HgN/A
4:30 PM72 °FScattered clouds.7 mph73%30.09 "HgN/A
4:00 PM70 °FBroken clouds.7 mph78%30.07 "HgN/A
3:30 PM73 °FBroken clouds.3 mph69%30.09 "HgN/A
3:00 PM73 °FBroken clouds.5 mph69%30.09 "HgN/A
2:00 PM68 °FLight rain. Partly sunny.7 mph88%30.12 "HgN/A
1:00 PM66 °FPartly sunny.No wind94%30.18 "HgN/A
12:30 PM66 °FLight rain. Broken clouds.No wind94%30.21 "HgN/A
12:00 PM66 °FLight rain. Partly sunny.No wind94%30.21 "HgN/A
11:30 AM66 °FBroken clouds.N/A100%30.21 "HgN/A
11:00 AM64 °FBroken clouds.N/A100%30.21 "HgN/A
10:30 AM64 °FLight rain. Partly sunny.N/A100%30.24 "HgN/A
10:00 AM34 °FLight rain. Partly sunny.No wind100%N/AN/A
9:00 AM63 °FLight rain. Partly sunny.3 mph100%30.24 "HgN/A
8:30 AM63 °FLight rain. Partly sunny.5 mph100%30.18 "HgN/A
7:00 AM63 °FLight rain. Partly sunny.7 mph100%30.18 "HgN/A
5:30 AM64 °FLight rain. Passing clouds.No wind100%30.12 "Hg5 mi
4:00 AM64 °FLight rain. Passing clouds.No wind100%30.09 "HgN/A
3:30 AM64 °FPartly cloudy.3 mph100%30.07 "HgN/A
3:00 AM63 °FPartly cloudy.No wind100%30.07 "HgN/A
2:30 AM63 °FPartly cloudy.3 mph100%30.07 "HgN/A
2:00 AM63 °FPartly cloudy.3 mph100%30.07 "HgN/A
1:30 AM63 °FPartly cloudy.3 mph100%30.07 "HgN/A
1:00 AM63 °FPartly cloudy.5 mph100%30.07 "HgN/A
12:30 AM63 °FPassing clouds.3 mph100%30.09 "HgN/A
12:00 AM63 °FPartly cloudy.3 mph100%30.09 "HgN/A
11:30 PM
Oct 19
64 °FPartly cloudy.3 mph100%30.12 "HgN/A
11:00 PM63 °FPassing clouds.3 mph100%30.12 "HgN/A
10:30 PM63 °FPassing clouds.6 mph100%30.15 "HgN/A
10:00 PM63 °FPassing clouds.5 mph100%30.15 "HgN/A
9:30 PM63 °FLight rain. Passing clouds.5 mph100%30.15 "HgN/A
9:00 PM63 °FLight rain. Passing clouds.8 mph100%30.15 "Hg5 mi
8:30 PM63 °FThunderstorms. Passing clouds.7 mph100%30.12 "Hg5 mi
8:00 PM64 °FThunderstorms. Passing clouds.5 mph100%30.12 "Hg5 mi
Weather by CustomWeather, © 2014

See weather overviewHow to use our weather pages